Weather History for Cartersville, GA

Change the Weather History Date:

Tuesday, November 6, 2012

  Actual Average Record
Temperature  
Mean Temperature 48 °F 55 °F  
Max Temperature 50 °F 67 °F 77 °F (2005)
Min Temperature 46 °F 42 °F 30 °F (2010)
Degree Days  
Heating Degree Days 17 11  
Month to date heating degree days 62  
Since 1 July heating degree days 254  
Moisture  
Dew Point 45 °F    
Average Humidity 93    
Maximum Humidity 100    
Minimum Humidity 74    
Precipitation  
Precipitation 1.40 in 0.11 in 1.40 in (2012)
Month to date precipitation 0.60  
Snow  
Snow 0.00 in - - ()
Month to date snowfall  
Since 1 July snowfall  
Since 1 September snowfall  
Snow Depth -    
Sea Level Pressure  
Sea Level Pressure 29.96 in    
Wind  
Wind Speed 3 mph (NE)    
Max Wind Speed 9 mph    
Max Gust Speed 17 mph    
Visibility 6 miles    
Events Rain    
T = Trace of Precipitation, MM = Missing Value Source: NWS Daily Summary

Daily Weather History Graph

Daily Weather History Graph

Search for Another Location

Airport:

Trip Planner

Search our weather history database for the weather conditions in past years. The results will help you decide how hot, cold, wet, or windy it might be!

Date:

Astronomy

Nov. 06, 2012 Rise Set
Actual Time 7:04 AM EST 5:41 PM EST
Civil Twilight 6:37 AM EST 6:07 PM EST
Nautical Twilight 6:08 AM EST 6:37 PM EST
Astronomical Twilight 5:38 AM EST 7:06 PM EST
Moon No Moon Rise 12:58 PM EST (11/6)
Length of Visible Light 11h 29m
Length of Day
10h 37m
Waning Gibbous, 53% of the Moon is Illuminated
Nov 6
Waning Gibbous
Nov 6
Last Quarter
Nov 13
New
Nov 20
First Quarter
Nov 28
Full

Hourly Weather History & Observations

Time (EST) Temp. Windchill Dew Point Humidity Pressure Visibility Wind Dir Wind Speed Gust Speed Precip Events Conditions
12:53 AM 46.9 °F - 46.0 °F 97% 29.97 in 3.0 mi WSW 3.5 mph - 0.06 in Rain Rain
1:53 AM 46.0 °F - 46.0 °F 100% 29.96 in 3.0 mi Calm Calm - 0.14 in Rain Rain
2:26 AM 46.4 °F - 44.6 °F 93% 29.97 in 5.0 mi Calm Calm - 0.09 in Rain Rain
2:45 AM 46.4 °F - 44.6 °F 93% 29.95 in 5.0 mi Calm Calm - 0.11 in Rain Light Rain
2:53 AM 46.0 °F - 45.0 °F 96% 29.94 in 6.0 mi Calm Calm - 0.11 in Rain Light Rain
3:02 AM 46.4 °F - 46.4 °F 100% 29.95 in 7.0 mi Calm Calm - 0.01 in Rain Light Rain
3:23 AM 46.4 °F - 46.4 °F 100% 29.95 in 5.0 mi Calm Calm - 0.02 in Rain Light Rain
3:36 AM 46.4 °F - 44.6 °F 93% 29.94 in 4.0 mi Calm Calm - 0.02 in Rain Light Rain
3:53 AM 46.0 °F 43.9 °F 45.0 °F 96% 29.92 in 5.0 mi NNE 4.6 mph - 0.03 in Rain Light Rain
4:48 AM 46.4 °F 45.2 °F 46.4 °F 100% 29.93 in 6.0 mi North 3.5 mph - 0.02 in   Overcast
4:53 AM 46.0 °F 44.8 °F 46.0 °F 100% 29.92 in 5.0 mi North 3.5 mph - 0.02 in   Overcast
5:53 AM 46.9 °F - 46.9 °F 100% 29.92 in 3.0 mi Calm Calm - 0.06 in Rain Rain
5:59 AM 46.4 °F - 46.4 °F 100% 29.94 in 1.8 mi Calm Calm - 0.09 in Rain Heavy Rain
6:13 AM 46.4 °F 43.5 °F 46.4 °F 100% 29.94 in 2.0 mi NE 5.8 mph - 0.19 in Rain Heavy Rain
6:30 AM 46.4 °F 41.9 °F 46.4 °F 100% 29.94 in 2.0 mi NE 9.2 mph - 0.31 in Rain Heavy Rain
6:53 AM 46.9 °F - 46.0 °F 97% 29.94 in 2.0 mi NNE 6.9 mph - 0.47 in Rain Heavy Rain
7:04 AM 46.4 °F 41.9 °F 46.4 °F 100% 29.95 in 2.5 mi NNE 9.2 mph - 0.07 in Rain Heavy Rain
7:08 AM 46.4 °F 41.9 °F 46.4 °F 100% 29.95 in 3.0 mi NNE 9.2 mph - 0.09 in Rain Heavy Rain
7:21 AM 46.4 °F 41.9 °F 46.4 °F 100% 29.96 in 4.0 mi NE 9.2 mph - 0.14 in Rain Rain
7:34 AM 46.4 °F 41.9 °F 46.4 °F 100% 29.97 in 4.0 mi ENE 9.2 mph - 0.19 in Rain Rain
7:53 AM 46.0 °F 43.1 °F 45.0 °F 96% 29.96 in 4.0 mi ENE 5.8 mph 17.3 mph 0.28 in Rain Rain
8:53 AM 46.0 °F 42.5 °F 44.1 °F 93% 29.98 in 4.0 mi Variable 6.9 mph - 0.15 in Rain Rain
9:53 AM 46.0 °F 41.9 °F 45.0 °F 96% 29.99 in 6.0 mi East 8.1 mph 16.1 mph 0.08 in Rain Light Rain
10:53 AM 46.9 °F - 44.1 °F 90% 30.00 in 10.0 mi Variable 3.5 mph - 0.00 in   Overcast
11:08 AM 46.4 °F - 44.6 °F 93% 30.01 in 10.0 mi Calm Calm - N/A   Overcast
11:21 AM 48.2 °F - 44.6 °F 87% 30.01 in 10.0 mi Variable 4.6 mph - N/A   Overcast
11:53 AM 48.9 °F - 45.0 °F 86% 29.99 in 10.0 mi Variable 5.8 mph - N/A   Overcast
12:53 PM 48.9 °F - 43.0 °F 80% 29.97 in 10.0 mi ENE 3.5 mph - N/A   Overcast
1:53 PM 48.9 °F - 42.1 °F 77% 29.95 in 10.0 mi East 3.5 mph - N/A   Overcast
2:53 PM 50.0 °F - 42.1 °F 74% 29.94 in 10.0 mi Variable 3.5 mph - N/A   Overcast
3:53 PM 50.0 °F - 43.0 °F 77% 29.95 in 10.0 mi Calm Calm - N/A   Overcast
4:36 PM 50.0 °F - 44.6 °F 82% 29.97 in 10.0 mi Calm Calm - N/A   Overcast
4:53 PM 48.9 °F - 44.1 °F 83% 29.95 in 10.0 mi Calm Calm - N/A   Overcast
5:53 PM 48.9 °F - 44.1 °F 83% 29.94 in 10.0 mi Calm Calm - N/A   Overcast
6:53 PM 48.0 °F - 45.0 °F 89% 29.96 in 9.0 mi Calm Calm - N/A   Overcast
7:53 PM 48.0 °F - 46.0 °F 93% 29.97 in 9.0 mi Calm Calm - N/A   Overcast
8:53 PM 48.0 °F - 46.0 °F 93% 29.98 in 8.0 mi Calm Calm - N/A   Overcast
9:53 PM 46.9 °F - 46.0 °F 97% 29.98 in 7.0 mi Calm Calm - N/A   Overcast
10:53 PM 46.9 °F - 46.0 °F 97% 29.96 in 6.0 mi Calm Calm - N/A   Overcast
11:53 PM 46.9 °F - 45.0 °F 93% 29.95 in 6.0 mi Calm Calm - N/A   Overcast